Showing default

BUCCANEER MM, 63245

Orbit data source: Space-Track

BUCCANEER MM, 63245 is an Australian payload satellite in SSO that was launched on Sat, 15 Mar 2025 UTC via an FALCON 9 launch vehicle from the Air Force Western Test Range (AFWTR). Payload-class satellites include a variety of spacecraft equipped with specific instruments for various scientific and technological missions. These include communications satellites like Starlink; space stations such as the ISS; scientific satellites like the Hubble; Earth observation satellites from companies like Planet Labs, Umbra, and HawkEye 360; GPS; miniature CubeSats for education and research; and military/defense satellites.

Loading next visibility...
Identifier
63245, 2025-052AM
Orbit
SSO
Country
Flag of AUAU / AUS
Related business
Manufacturer
U. NSW
Mission
Operational Amateur Technology
Bus & Motor
CUBESAT 6U, Unknown motor
Mass
~10 kg wet, ~10 kg dry
Launch date (UTC)
2025-03-15 (6 months ago)
Launch vehicle
FALCON 9
Launch site
Air Force Western Test Range (AFWTR)
Object type
Payload
Rocket body
Debris
Shape & HBR
Box + 2 Ant, 1.8 m
Radar Cross Section
0.160 m², Small (<0.1 m²)

Expand to show TLE details & history
Last TLE update: 8 hours ago

TLE from 8 hours ago
0 BUCCANEER MM
1 63245U 25052AM  25261.25271543  .00003210  00000-0  31921-3 0  9994
2 63245  97.7131 152.7180 0005687  54.7871 305.3880 14.92352786 28006
Epoch: 2025-09-18T06:03Z
TLE epoch observation values (Epoch: 2025-09-18T06:03:54.613Z)
Latitude
Longitude
64.32347°
Altitude
591.351 km
Speed
7.566 km/s
True Right ascension
10h 10m 52s
True Declination
0° 00' 00"
Sunlit
Object was in daylight at epoch
Visualization orbit readout
Latitude
Unknown
Longitude
Unknown
Altitude
Unknown
Speed
Unknown
Apparent Right ascension
Unknown
Apparent Declination
Unknown
Sunlit
N/A
Visualization observer readout
Local Sidereal Time
07:11:28
Azimuth
Unknown
Elevation
Unknown
Doppler factor
Unknown
Orbital elements
Apogee altitude
591.579 km
Perigee altitude
583.656 km
Semi-major axis
6,965.755 km
Eccentricity
0.00057
Inclination
97.7131°
RAAN
152.718°
Arg. of periapsis
54.7871°
True anomaly
305.33485°
Mean anomaly
305.388°
Eccentric anomaly
305.36143°
Mean motion
3.73328 °/min
Orbital period
96.43 mins
BSTAR
0.00031921
Loading maneuver chart data...
Computing Atmospheric mass density...
Loading historical data...
Loading historical data...
Loading historical data...
Loading historical data...
Loading historical data...
Loading historical data...
Loading historical data...

Documentation

Showing up to 5 results
|